History for Miami, FL

Friday, January 25, 2013 — View Current Conditions

Jump to Data:

Date:
Airport Code:
Recently Viewed Airport Codes: KMIA
Daily Summary
  Actual Average Record
Temperature
Mean Temperature 70°F 68°F  
Max Temperature 78°F 77°F 84°F (1987)
Min Temperature 61°F 60°F 36°F (1940)
Degree Days
Heating Degree Days 0 2  
Month to date heating degree days 4 50  
Since 1 July heating degree days 20 87  
Cooling Degree Days 5 5  
Month to date cooling degree days 220 125  
Year to date cooling degree days 220 125  
Growing Degree Days 20 (Base 50)    
Moisture
Dew Point 52°F    
Average Humidity 55    
Maximum Humidity 73    
Minimum Humidity 37    
Precipitation
Precipitation 0.00 in 0.06 in 1.50 in (1931)
Month to date precipitation 0.54 1.29  
Year to date precipitation 0.54 1.29  
Snow
Snow 0.00 in in in ()
Month to date snowfall 0.0  
Since 1 July snowfall 0.0  
Snow Depth 0.00 in    
Sea Level Pressure
Sea Level Pressure 30.24 in    
Wind
Wind Speed 4 mph (ENE)    
Max Wind Speed 17 mph    
Max Gust Speed 22 mph    
Visibility 10 miles    
Events      
T = Trace of Precipitation, MM = Missing Value Source: NWS Daily Summary

Show full METARS

(help) - Comma Delimited File

Hourly Observations

Time(EST) Temperature Dew Point Humidity Sea Level Pressure Visibility Wind Direction Wind Speed Gust Speed Precipitation Events Conditions
12:53 AM 64.0°F 52.0°F 65% 30.26 in 10.0 miles North 3.5 mph - N/A   Clear
1:53 AM 63.0°F 52.0°F 67% 30.25 in 10.0 miles Calm Calm - N/A   Clear
2:53 AM 63.0°F 51.1°F 65% 30.24 in 10.0 miles Calm Calm - N/A   Partly Cloudy
3:53 AM 62.1°F 51.1°F 67% 30.24 in 10.0 miles Calm Calm - N/A   Clear
4:53 AM 63.0°F 51.1°F 65% 30.24 in 10.0 miles Variable 4.6 mph - N/A   Partly Cloudy
5:53 AM 62.1°F 50.0°F 65% 30.25 in 10.0 miles Variable 3.5 mph - N/A   Partly Cloudy
6:53 AM 62.1°F 48.9°F 62% 30.26 in 10.0 miles Variable 4.6 mph - N/A   Partly Cloudy
7:53 AM 63.0°F 48.9°F 60% 30.27 in 10.0 miles Variable 4.6 mph - N/A   Partly Cloudy
8:53 AM 66.9°F 50.0°F 54% 30.28 in 10.0 miles Variable 3.5 mph - N/A   Partly Cloudy
9:53 AM 70.0°F 51.1°F 51% 30.30 in 10.0 miles Variable 5.8 mph - N/A   Partly Cloudy
10:53 AM 73.0°F 52.0°F 48% 30.29 in 10.0 miles NNE 4.6 mph - N/A   Partly Cloudy
11:53 AM 75.9°F 51.1°F 42% 30.27 in 10.0 miles East 12.7 mph 21.9 mph N/A   Scattered Clouds
12:53 PM 78.1°F 50.0°F 37% 30.24 in 10.0 miles ENE 10.4 mph 19.6 mph N/A   Scattered Clouds
1:53 PM 75.0°F 51.1°F 43% 30.22 in 10.0 miles East 12.7 mph - N/A   Scattered Clouds
2:53 PM 75.9°F 51.1°F 42% 30.20 in 10.0 miles East 6.9 mph - N/A   Partly Cloudy
3:53 PM 75.0°F 52.0°F 44% 30.19 in 10.0 miles East 8.1 mph - N/A   Partly Cloudy
4:53 PM 73.9°F 53.1°F 48% 30.20 in 10.0 miles ENE 6.9 mph - N/A   Partly Cloudy
5:53 PM 72.0°F 54.0°F 53% 30.21 in 10.0 miles East 5.8 mph - N/A   Scattered Clouds
6:53 PM 72.0°F 55.0°F 55% 30.22 in 10.0 miles East 5.8 mph - N/A   Mostly Cloudy
7:53 PM 70.0°F 55.9°F 61% 30.21 in 10.0 miles Calm Calm - N/A   Partly Cloudy
8:53 PM 69.1°F 57.0°F 65% 30.22 in 10.0 miles Calm Calm - N/A   Partly Cloudy
9:53 PM 66.9°F 55.9°F 68% 30.22 in 10.0 miles Calm Calm - N/A   Partly Cloudy
10:53 PM 66.9°F 57.0°F 70% 30.23 in 10.0 miles Calm Calm - N/A   Partly Cloudy
11:53 PM 64.9°F 57.0°F 75% 30.23 in 10.0 miles Calm Calm - N/A   Partly Cloudy